User: anonymous   Login
Location: Chakepay
(13.3931°S, 72.1925°W)
Time: 10:26:26
(UTC+00:00)
Language:

YAOGAN 1 - Orbit

View from above orbital plane
View from above orbital plane
View from above satellite
View from above satellite

Ground track
Ground track

The orbit data is extracted from the following two-line orbital elements,

1 29092U 06015A   20057.31760562  .00000059  00000-0  13815-4 0  9994
2 29092  97.9517  82.2900 0001407  93.4804 266.6571 14.83044907748218
Epoch (UTC): 26 February 2020 07:37:21
Eccentricity: 0.0001407
inclination: 97.9517°
perigee height: 619 km
apogee height: 621 km
right ascension of ascending node: 82.2900°
argument of perigee: 93.4804°
revolutions per day: 14.83044907
mean anomaly at epoch: 266.6571°
orbit number at epoch: 74821

The dashed part of the orbit path shows where the satellite is in the earth's shadow,  

DLR